Back to catalog

STARLINK-5552

AliveCommunicationsSSO
NORAD 56339·PAYLOAD·🇺🇸 United States

Launched Apr 27, 2023 from Vandenberg Space Force Base

Loading…

Next Passes (next 24 hours)

TLE

FreshSource: CelesTrak SupGP

Epoch: Sep 14, 2026, 14:42 UTC

1 56339C 23058Y   26257.61298611 -.00061657  00000+0 -37488-2 0  2575
2 56339  97.2854 251.8427 0002398  95.0190  84.6751 15.10575186    19

Track STARLINK-5552 in real time with AllMySat

Download on the App Store